#timestamp,LO_Frequency,Hit,StdDev 
1634025615.9,286046996.9,N
1634025635.7,286046997.5,N
1634025655.6,286046996.3,N
1634025675.4,286046993.8,Y
1634025695.2,286046994.0,P
1634025715.1,286046992.9,N
1634025716.0,286046992.9,N
1634025735.8,286046994.3,N
1634025755.7,286046995.5,N
1634025775.5,286046995.0,N
1634025795.3,286046999.5,N
1634025815.2,286046998.5,N
1634025835.0,286046998.3,N
1634025835.9,286046998.3,N
1634025855.7,286046998.1,N
1634025875.6,286047001.0,N
1634025895.4,286047000.8,N
1634025915.3,286047001.2,N
1634025935.1,286046996.7,N
1634025955.8,286046997.4,N
1634025975.7,286046997.0,N
1634025995.5,286046995.7,N
1634026015.4,286046993.5,N
1634026035.2,286046995.1,N
1634026055.0,286046995.7,N
1634026055.9,286046995.7,N
1634026075.8,286046993.6,N
1634026095.6,286046992.2,Y
1634026115.5,286046995.1,P
1634026135.3,286046995.6,P
1634026155.1,286046996.4,P
1634026175.9,286046996.2,Y
1634026195.7,286047000.8,P
1634026215.6,286047000.7,N
1634026235.4,286046999.9,N
1634026255.2,286047002.8,N
1634026275.1,286047001.8,N
1634026276.0,286047001.8,N
1634026295.8,286047004.4,N
1634026315.7,286047005.2,N
1634026335.5,286047003.9,N
1634026355.3,286047001.7,N
1634026375.2,286047001.5,N
1634026395.0,286047002.3,N
1634026395.9,286047002.3,N
1634026415.8,286047000.9,N
1634026435.6,286046997.0,N
1634026455.4,286046999.1,N
1634026475.3,286047001.0,N
1634026495.1,286047002.4,N
1634026515.9,286047001.8,N
1634026535.7,286047003.2,N
1634026555.5,286047004.4,N
1634026575.4,286047002.7,N
1634026595.2,286047000.6,N
1634026615.1,286047000.4,N
1634026616.0,286047000.4,N
1634026635.8,286047000.6,N
1634026655.6,286047000.9,N
1634026675.5,286047000.7,N
1634026695.3,286046998.8,N
1634026715.1,286046998.9,N
1634026735.9,286046998.6,N
1634026755.7,286046999.2,N
1634026775.6,286046998.2,N
1634026795.4,286047000.0,N
1634026815.2,286047000.1,N
1634026835.1,286047000.2,N
1634026836.0,286047000.2,N
1634026855.8,286046999.8,N
1634026875.6,286046999.7,N
1634026895.5,286047000.5,N
1634026915.3,286047002.6,N
1634026935.2,286047002.4,N
1634026955.9,286047001.0,N
1634026975.7,286047001.2,N
1634026995.6,286046998.2,N
1634027015.4,286046999.6,N
1634027035.2,286046999.4,N
1634027055.1,286046998.9,N
1634027056.0,286046998.9,N
1634027075.8,286046999.3,N
1634027095.7,286046998.9,N
1634027115.5,286046999.3,N
1634027135.3,286047000.8,N
1634027155.2,286046999.1,N
1634027175.0,286046998.4,N
1634027175.9,286046998.4,N
1634027195.8,286046998.1,N
1634027215.6,286047002.3,N
1634027235.4,286047003.7,N
1634027255.3,286046999.8,N
1634027275.1,286047003.2,N
1634027295.8,286047001.4,N
1634027315.7,286047002.4,N
1634027335.5,286047002.6,N
1634027355.4,286046999.7,N
1634027375.2,286047002.4,N
1634027395.0,286047002.3,N
1634027395.9,286047002.3,N
1634027415.8,286047003.5,N
1634027435.6,286047003.3,N
1634027455.5,286047004.6,N
1634027475.3,286047004.5,N
1634027495.1,286047005.7,N
1634027515.9,286047004.6,N
1634027535.7,286047005.2,N
1634027555.5,286047005.9,N
1634027575.4,286047006.0,N
1634027595.2,286047003.5,N
1634027615.1,286047003.8,N
1634027616.0,286047003.8,N
1634027635.8,286047000.0,N
1634027655.6,286047001.0,N
1634027675.5,286047000.7,N
1634027695.3,286046998.5,N
1634027715.1,286046999.3,N
1634027735.9,286047000.8,N
1634027755.7,286047002.4,N
1634027775.6,286046999.7,N
1634027795.4,286047002.5,N
1634027815.2,286047000.6,N
1634027835.1,286046998.4,N
1634027836.0,286046998.4,N
1634027855.8,286046998.1,N
1634027875.6,286046999.1,N
1634027895.5,286046998.5,N
1634027945.4,286046996.5,E
1634027955.3,286047000.7,N
1634027975.1,286047001.5,P
1634027995.9,286047001.7,P
1634028015.7,286047003.8,Y
1634028035.5,286047002.2,P
1634028055.4,286047004.3,P
1634028075.2,286047002.6,N
1634028095.0,286047002.1,N
1634028095.9,286047002.1,N
1634028115.8,286047002.3,N
1634028135.6,286047002.6,Y
1634028155.5,286047000.8,P
1634028175.3,286047000.8,N
1634028195.1,286047001.2,N
1634028215.9,286046998.6,N
1634028235.7,286046998.6,N
1634028255.6,286046998.5,N
1634028275.4,286046998.1,N
1634028295.2,286047002.7,N
1634028315.1,286047002.6,N
1634028316.0,286047002.6,N
1634028335.8,286046999.8,N
1634028355.6,286046999.7,N
1634028375.5,286047002.7,N
1634028395.3,286047004.0,N
1634028415.2,286047006.4,Y
1634028435.9,286047009.9,P
1634028455.7,286047009.8,N
1634028475.6,286047009.7,N
1634028495.4,286047013.6,Y
1634028515.3,286047004.7,P
1634028535.1,286047005.0,P
1634028536.0,286047005.0,P
1634028555.8,286047005.0,Y
1634028575.7,286047001.2,P
1634028595.5,286047001.8,N
1634028615.4,286047003.7,N
1634028635.2,286046999.7,N
1634028655.0,286046997.1,N
1634028655.9,286046997.1,N
1634028675.8,286046996.1,N
1634028695.6,286046993.6,N
1634028715.4,286046993.4,N
1634028735.3,286046991.8,N
1634028755.1,286046994.4,N
1634028775.9,286046994.6,N
1634028795.7,286046992.0,N
1634028815.5,286046991.9,N
1634028835.4,286046986.3,Y
1634028855.2,286046997.5,P
1634028875.0,286046997.0,P
1634028876.0,286046997.0,P
1634028895.8,286046996.6,Y
1634028915.6,286047002.5,P
1634028935.5,286047002.0,N
1634028955.3,286047001.4,N
1634028975.1,286047002.0,N
1634028995.9,286047004.4,N
1634029015.7,286047001.4,N
1634029035.6,286047003.4,N
1634029055.4,286047003.3,N
1634029075.2,286047003.7,N
1634029095.1,286047003.6,N
1634029096.0,286047003.6,N
1634029115.8,286047003.3,N
1634029135.7,286047004.3,N
1634029155.5,286047001.7,N
1634029175.3,286047001.7,N
1634029195.2,286047002.1,N
